Perryton, TX

3:12 AM CDT on October 19, 2017 (GMT -0500)
Perryton Ochiltree County

Weather History for KPYX - October, 2012

Change the Weather History Date:

Monday, October 22, 2012

  Actual Average Record
Temperature  
Mean Temperature 63 °F -  
Max Temperature 78 °F 71 °F 91 °F (1975)
Min Temperature 48 °F 41 °F 27 °F (1982)
Degree Days  
Heating Degree Days 2    
Growing Degree Days 13 (Base 50)    
Moisture  
Dew Point 43 °F    
Average Humidity 53    
Maximum Humidity 94    
Minimum Humidity 30    
Precipitation  
Precipitation 0.00 in - - ()
Sea Level Pressure  
Sea Level Pressure 29.83 in    
Wind  
Wind Speed 8 mph (NW)    
Max Wind Speed 15 mph    
Max Gust Speed -    
Visibility 9 miles    
Events      
Averages and records for this station are not official NWS values.
T = Trace of Precipitation, MM = Missing Value Source: NWS Daily Summary

Daily Weather History Graph

Daily Weather History Graph

Search for Another Location

Airport or City:

Trip Planner

Search our weather history database for the weather conditions in past years. The results will help you decide how hot, cold, wet, or windy it might be!

Date:

Astronomy

Oct. 22, 2012 Rise Set
Actual Time 7:57 AM CDT 6:57 PM CDT
Civil Twilight 7:30 AM CDT 7:23 PM CDT
Nautical Twilight 7:00 AM CDT 7:53 PM CDT
Astronomical Twilight 6:30 AM CDT 8:23 PM CDT
Moon 2:55 PM CDT (10/22) 12:57 AM CDT (10/22)
Length of Visible Light 11h 52m
Length of Day
11h 00m
First Quarter, 56% of the Moon is Illuminated
Oct 22
First Quarter
Oct 29
Full
Nov 6
Last Quarter
Nov 13
New
Nov 20
First Quarter

Hourly Weather History & Observations

Time (CDT) Temp. Dew Point Humidity Pressure Visibility Wind Dir Wind Speed Gust Speed Precip Events Conditions
12:15 AM 60.8 °F 32.0 °F 34% 29.76 in 10.0 mi WNW 10.4 mph - N/A   Clear
12:55 AM 59.0 °F 32.0 °F 36% 29.78 in 10.0 mi West 8.1 mph - N/A   Clear
1:15 AM 57.2 °F 32.0 °F 38% 29.78 in 10.0 mi WSW 10.4 mph - N/A   Clear
1:35 AM 62.6 °F 32.0 °F 32% 29.78 in 10.0 mi WSW 15.0 mph - N/A   Clear
1:55 AM 62.6 °F 32.0 °F 32% 29.77 in 10.0 mi WSW 13.8 mph - N/A   Clear
2:15 AM 62.6 °F 32.0 °F 32% 29.77 in 10.0 mi WSW 13.8 mph - N/A   Clear
2:35 AM 62.6 °F 32.0 °F 32% 29.78 in 10.0 mi WSW 12.7 mph - N/A   Clear
2:55 AM 57.2 °F 33.8 °F 41% 29.78 in 10.0 mi SW 11.5 mph - N/A   Clear
3:15 AM 55.4 °F 33.8 °F 44% 29.78 in 10.0 mi WSW 10.4 mph - N/A   Clear
3:55 AM 55.4 °F 32.0 °F 41% 29.78 in 10.0 mi WSW 9.2 mph - N/A   Clear
4:15 AM 55.4 °F 33.8 °F 44% 29.78 in 10.0 mi WSW 9.2 mph - N/A   Clear
4:35 AM 57.2 °F 32.0 °F 38% 29.78 in 10.0 mi WSW 10.4 mph - N/A   Clear
4:55 AM 55.4 °F 32.0 °F 41% 29.79 in 10.0 mi WSW 6.9 mph - N/A   Clear
5:15 AM 53.6 °F 33.8 °F 47% 29.80 in 10.0 mi SSW 6.9 mph - N/A   Clear
5:35 AM 51.8 °F 33.8 °F 50% 29.80 in 10.0 mi SW 5.8 mph - N/A   Clear
5:55 AM 51.8 °F 33.8 °F 50% 29.81 in 10.0 mi West 6.9 mph - N/A   Clear
6:15 AM 50.0 °F 33.8 °F 54% 29.82 in 10.0 mi NW 4.6 mph - N/A   Clear
6:35 AM 50.0 °F 33.8 °F 54% 29.82 in 10.0 mi West 4.6 mph - N/A   Clear
7:15 AM 50.0 °F 33.8 °F 54% 29.82 in 10.0 mi WNW 10.4 mph - N/A   Clear
7:35 AM 51.8 °F 35.6 °F 54% 29.85 in 10.0 mi West 9.2 mph - N/A   Clear
7:55 AM 50.0 °F 33.8 °F 54% 29.86 in 10.0 mi West 9.2 mph - N/A   Clear
8:15 AM 48.2 °F 35.6 °F 62% 29.87 in 10.0 mi West 8.1 mph - N/A   Clear
8:35 AM 48.2 °F 37.4 °F 66% 29.86 in 10.0 mi NW 10.4 mph - N/A   Clear
8:55 AM 48.2 °F 42.8 °F 82% 29.87 in 5.0 mi NNW 10.4 mph - N/A   Scattered Clouds
9:15 AM 50.0 °F 46.4 °F 87% 29.89 in 4.0 mi NW 5.8 mph - N/A   Overcast
9:35 AM 51.8 °F 46.4 °F 82% 29.88 in 4.0 mi NW 8.1 mph - N/A   Overcast
9:55 AM 51.8 °F 48.2 °F 88% 29.89 in 4.0 mi NNW 9.2 mph - N/A   Overcast
10:15 AM 51.8 °F 50.0 °F 94% 29.89 in 3.0 mi NNW 9.2 mph - N/A   Overcast
10:35 AM 53.6 °F 50.0 °F 88% 29.92 in 4.0 mi West 3.5 mph - N/A   Overcast
10:55 AM 53.6 °F 50.0 °F 88% 29.91 in 5.0 mi WNW 4.6 mph - N/A   Overcast
11:15 AM 57.2 °F 50.0 °F 77% 29.92 in 7.0 mi WNW 4.6 mph - N/A   Overcast
11:35 AM 59.0 °F 50.0 °F 72% 29.92 in 7.0 mi NNW 5.8 mph - N/A   Scattered Clouds
11:55 AM 60.8 °F 50.0 °F 68% 29.92 in 7.0 mi NW 8.1 mph - N/A   Clear
12:15 PM 64.4 °F 50.0 °F 59% 29.91 in 10.0 mi NNW 6.9 mph - N/A   Clear
12:35 PM 66.2 °F 50.0 °F 56% 29.91 in 10.0 mi NNW 6.9 mph - N/A   Clear
12:55 PM 68.0 °F 48.2 °F 49% 29.90 in 10.0 mi Calm Calm - N/A   Clear
1:15 PM 68.0 °F 46.4 °F 46% 29.90 in 10.0 mi Calm Calm - N/A   Clear
1:35 PM 69.8 °F 46.4 °F 43% 29.88 in 10.0 mi ESE 5.8 mph - N/A   Clear
1:55 PM 71.6 °F 46.4 °F 41% 29.87 in 10.0 mi Calm Calm - N/A   Clear
2:15 PM 73.4 °F 44.6 °F 36% 29.85 in 10.0 mi Calm Calm - N/A   Clear
2:35 PM 73.4 °F 44.6 °F 36% 29.85 in 10.0 mi Calm Calm - N/A   Clear
2:55 PM 75.2 °F 44.6 °F 34% 29.84 in 10.0 mi East 5.8 mph - N/A   Clear
3:15 PM 77.0 °F 44.6 °F 32% 29.84 in 10.0 mi Calm Calm - N/A   Clear
3:35 PM 77.0 °F 44.6 °F 32% 29.82 in 10.0 mi North 6.9 mph - N/A   Clear
3:55 PM 77.0 °F 46.4 °F 34% 29.81 in 10.0 mi North 4.6 mph - N/A   Clear
4:15 PM 77.0 °F 44.6 °F 32% 29.80 in 10.0 mi ENE 4.6 mph - N/A   Clear
4:35 PM 78.8 °F 44.6 °F 30% 29.81 in 10.0 mi North 3.5 mph - N/A   Clear
4:55 PM 77.0 °F 46.4 °F 34% 29.80 in 10.0 mi NNE 8.1 mph - N/A   Clear
5:15 PM 77.0 °F 46.4 °F 34% 29.80 in 10.0 mi NE 8.1 mph - N/A   Clear
5:35 PM 77.0 °F 46.4 °F 34% 29.80 in 10.0 mi NE 6.9 mph - N/A   Clear
5:55 PM 75.2 °F 46.4 °F 36% 29.80 in 10.0 mi ENE 5.8 mph - N/A   Clear
6:15 PM 73.4 °F 46.4 °F 38% 29.80 in 10.0 mi ENE 6.9 mph - N/A   Clear
6:35 PM 71.6 °F 46.4 °F 41% 29.80 in 10.0 mi NE 5.8 mph - N/A   Clear
6:55 PM 68.0 °F 46.4 °F 46% 29.81 in 10.0 mi NNE 5.8 mph - N/A   Clear
7:15 PM 66.2 °F 46.4 °F 49% 29.81 in 10.0 mi NNE 5.8 mph - N/A   Clear
7:35 PM 62.6 °F 46.4 °F 55% 29.81 in 10.0 mi NNE 6.9 mph - N/A   Clear
7:55 PM 62.6 °F 48.2 °F 59% 29.81 in 10.0 mi NE 9.2 mph - N/A   Clear
8:15 PM 60.8 °F 46.4 °F 59% 29.81 in 10.0 mi NE 9.2 mph - N/A   Clear
8:35 PM 60.8 °F 46.4 °F 59% 29.81 in 10.0 mi ENE 8.1 mph - N/A   Clear
8:55 PM 59.0 °F 46.4 °F 63% 29.80 in 10.0 mi East 10.4 mph - N/A   Clear
9:15 PM 57.2 °F 48.2 °F 72% 29.82 in 10.0 mi East 6.9 mph - N/A   Clear
9:35 PM 55.4 °F 46.4 °F 72% 29.81 in 10.0 mi East 8.1 mph - N/A   Clear
9:55 PM 55.4 °F 46.4 °F 72% 29.81 in 10.0 mi East 6.9 mph - N/A   Clear
10:15 PM 55.4 °F 48.2 °F 77% 29.81 in 10.0 mi ESE 8.1 mph - N/A   Clear
10:35 PM 55.4 °F 48.2 °F 77% 29.80 in 10.0 mi SSE 8.1 mph - N/A   Clear
10:55 PM 59.0 °F 51.8 °F 77% 29.80 in 10.0 mi South 11.5 mph - N/A   Clear
11:15 PM 60.8 °F 53.6 °F 77% 29.80 in 10.0 mi South 12.7 mph - N/A   Clear
11:35 PM 62.6 °F 53.6 °F 72% 29.80 in 10.0 mi South 12.7 mph - N/A   Clear